Location: Rounton
(54.4000°N, 1.3500°W)
Time: 17:50:21
(UTC+00:00)

A-11 Canister half - Visible Passes

Search period start: 06 December 2021 00:00
Search period end: 16 December 2021 00:00
Orbit: 1516 x 1684 km, 47.2° (Epoch: 05 December)

Date Brightness Start Highest point End Pass type
(mag) Time Alt. Az. Time Alt. Az. Time Alt. Az.
06 Dec 11.3 04:33:12 10° SSE 04:37:19 13° SE 04:41:29 10° E visible
06 Dec 10.5 06:31:20 10° SSW 06:39:50 36° SSE 06:48:35 10° E visible
07 Dec 11.3 04:11:07 10° SE 04:14:34 12° SE 04:18:01 10° ESE visible
07 Dec 10.5 06:08:37 10° SSW 06:16:59 35° SE 06:25:36 10° E visible
08 Dec 11.3 03:49:17 10° SE 03:51:48 11° ESE 03:54:21 10° ESE visible
08 Dec 10.5 05:45:55 10° SSW 05:54:09 34° SE 06:02:38 10° E visible
09 Dec 11.4 03:28:13 10° SE 03:29:04 10° ESE 03:29:54 10° ESE visible
09 Dec 10.5 05:23:14 10° SSW 05:31:19 32° SE 05:39:39 10° E visible
09 Dec 9.9 07:25:34 10° WSW 07:34:52 54° SSE 07:44:30 10° E visible
10 Dec 10.5 05:00:33 10° SSW 05:08:30 31° SE 05:16:40 10° E visible
10 Dec 9.8 07:02:44 10° WSW 07:11:59 53° SSE 07:21:34 10° E visible
11 Dec 10.4 04:37:55 10° SSW 04:45:41 29° SE 04:53:41 10° E visible
11 Dec 9.8 06:39:55 10° WSW 06:49:06 52° SSE 06:58:38 10° E visible
12 Dec 10.4 04:16:17 13° S 04:22:52 28° SE 04:30:41 10° E visible
12 Dec 9.8 06:17:05 10° SW 06:26:14 51° SSE 06:35:42 10° E visible
13 Dec 10.4 03:55:22 18° S 04:00:04 27° SE 04:07:40 10° E visible
13 Dec 9.7 05:54:16 10° SW 06:03:21 50° SSE 06:12:46 10° E visible
14 Dec 10.4 03:34:18 22° SSE 03:37:16 25° SE 03:44:40 10° E visible
14 Dec 9.7 05:32:33 14° SW 05:40:29 49° SSE 05:49:49 10° E visible
14 Dec 9.7 07:35:09 10° W 07:44:32 57° S 07:54:14 10° ESE visible
15 Dec 10.4 03:13:07 23° SSE 03:14:28 24° SE 03:21:38 10° E visible
15 Dec 9.7 05:11:21 21° SW 05:17:37 48° SSE 05:26:53 10° E visible
15 Dec 9.6 07:12:16 10° WSW 07:21:38 58° S 07:31:19 10° ESE visible
